{"data":{"norad_id":53522,"intl_designator":"2022-100A","name":"YAOGAN-35 04A","alt_names":[],"object_type":"PAYLOAD","status":"ACTIVE","operator":null,"country":"PRC","launch_date":"2022-08-19","launch_site_code":"XICLF","launch_vehicle":null,"mission":null,"orbit_class":"UNKNOWN","rcs_meters":null,"size_class":null,"mass_kg":null,"dimensions":null,"purposes":[],"wikipedia_slug":null,"has_3d_model":false,"image_url":null,"decayed_at":null,"tle_current":{"epoch":"2026-05-24T10:58:38.527968Z","epoch_age_seconds":125160,"freshness":"FRESH","line1":"1 53522U 22100A   26144.45739037  .00000230  00000+0  11100-4 0  9998","line2":"2 53522  35.0088 201.0168 0006122  35.4449 324.6672 15.23066049209648","mean_motion":15.23066049,"eccentricity":0.0006122,"inclination_deg":35.0088,"raan_deg":201.0168,"arg_perigee_deg":35.4449,"mean_anomaly_deg":324.6672,"bstar":1.11e-5,"rev_number":20964,"period_min":94.546129561844,"perigee_km":492.39014735204,"apogee_km":500.80757393981,"semimajor_km":6874.7358606459,"source":"CELESTRAK","updated_at":"2026-05-25T13:37:58.224592Z"}}}